Weather in Kronshtadtka

Russia / Primorsky Krai     44°43′22″N   133°05′57″E
В апреле 2022 года жителям России запретили посещать сайт meteo.paraplan.net по решению Генеральной прокуратуры. Аудитория сайта уменьшилась в 10 раз. Владельцы сайта не видят смысла в поддержке погодного сервера в таких условиях. Сайт будет закрыт в октябре.
temp.,
°C
wind,
m/s
gust,
m/s
humid.,
%
clouds,
%
prec.,
mm/h
press.,
hPa
HPBL,
m
5 october, wed
wed501:00+1n22537 0.0 102234
04:000nw12547 0.0 102228
07:000nw12585 0.0 102319
10:00+6nw58365 0.0 10241983
13:00+8nw58311 0.0 10232144
16:00+8nw37295 0.0 10212038
19:00+5s224098 0.0 102223
22:00+4wnw1360100 0.2 102373
6 october, thu
thu601:00+4w395597 0.2 1023274
04:00+2wsw23633 0.2 102446
07:000ssw23680 0.0 102655
10:00+7wnw35440 0.0 10261397
13:00+9wnw56325 0.0 10252059
16:00+9wnw36300 0.0 10251924
19:00+5s22425 0.0 102510
22:00+3sse2246100 0.0 102624
7 october, fri
fri701:00+3ssw2248100 0.0 102620
04:00+2s365519 0.0 102598
07:00+1s23595 0.0 102639
10:00+7sw354364 0.0 1025407
13:00+11wsw453387 0.0 10242381
16:00+11wnw45315 0.0 10231970
19:00+6sw00440 0.0 102410
22:00+4s21485 0.0 102510
8 october, sat
sat801:00+3ssw22510 0.0 102614
04:00+2s22570 0.0 102728
07:00+2s22612 0.0 102722
10:00+8ssw35435 0.0 1027386
13:00+13sw45325 0.0 10261236
16:00+14sw45295 0.0 10251442
19:00+8s22505 0.0 102621
22:00+7s335593 0.0 102640
9 october, sun
sun901:00+6sse226078 0.0 102639
04:00+5se346599 0.0 102767
07:00+5se3674100 0.0 102789
10:00+11sse4857100 0.0 1027460
13:00+14ssw5747100 0.0 10261251
16:00+15ssw463683 0.0 10241895
19:00+9ssw24577 0.0 102550
22:00+7ssw2370100 0.0 102533